TimeCDT,TemperatureF,Dew PointF,Humidity,Sea Level PressureIn,VisibilityMPH,Wind Direction,Wind SpeedMPH,Gust SpeedMPH,PrecipitationIn,Events,Conditions,WindDirDegrees,DateUTC
12:53 AM,70.0,64.9,84,30.10,10.0,SE,5.8,-,N/A,,Mostly Cloudy,130,2013-07-15 05:53:00
1:53 AM,68.0,64.0,87,30.11,10.0,SE,4.6,-,N/A,,Clear,140,2013-07-15 06:53:00
2:53 AM,66.9,63.0,87,30.12,10.0,Calm,Calm,-,N/A,,Partly Cloudy,0,2013-07-15 07:53:00
3:53 AM,64.9,63.0,93,30.12,7.0,Calm,Calm,-,N/A,,Clear,0,2013-07-15 08:53:00
4:53 AM,64.9,62.1,90,30.13,6.0,Calm,Calm,-,N/A,,Mostly Cloudy,0,2013-07-15 09:53:00
5:53 AM,64.9,63.0,93,30.14,5.0,Calm,Calm,-,N/A,,Overcast,0,2013-07-15 10:53:00
6:53 AM,64.0,62.1,93,30.14,3.0,Calm,Calm,-,N/A,,Clear,0,2013-07-15 11:53:00
7:00 AM,64.4,62.6,94,30.19,1.8,SSE,3.5,-,N/A,,Clear,150,2013-07-15 12:00:00
7:11 AM,62.6,62.6,100,30.19,0.5,SE,3.5,-,N/A,Fog,Fog,130,2013-07-15 12:11:00
7:31 AM,62.6,62.6,100,30.20,1.0,Calm,Calm,-,N/A,,Mist,0,2013-07-15 12:31:00
7:36 AM,64.4,62.6,94,30.20,2.0,Calm,Calm,-,N/A,,Scattered Clouds,0,2013-07-15 12:36:00
7:53 AM,64.9,63.0,93,30.15,2.0,NE,3.5,-,N/A,,Partly Cloudy,50,2013-07-15 12:53:00
8:33 AM,68.0,64.4,88,30.22,3.0,NE,3.5,-,N/A,,Clear,50,2013-07-15 13:33:00
8:53 AM,69.1,64.0,84,30.17,4.0,East,3.5,-,N/A,,Haze,100,2013-07-15 13:53:00
9:53 AM,73.0,64.0,73,30.17,9.0,ESE,4.6,-,N/A,,Clear,120,2013-07-15 14:53:00
10:53 AM,75.9,62.1,62,30.16,10.0,South,6.9,-,N/A,,Clear,190,2013-07-15 15:53:00
11:53 AM,79.0,59.0,50,30.15,10.0,SSE,10.4,-,N/A,,Scattered Clouds,150,2013-07-15 16:53:00
12:53 PM,80.1,57.9,47,30.14,10.0,South,11.5,-,N/A,,Scattered Clouds,180,2013-07-15 17:53:00
1:53 PM,84.0,55.9,38,30.12,10.0,South,12.7,18.4,N/A,,Partly Cloudy,170,2013-07-15 18:53:00
2:53 PM,84.9,54.0,34,30.10,10.0,SE,11.5,16.1,N/A,,Clear,140,2013-07-15 19:53:00
3:53 PM,86.0,52.0,31,30.09,10.0,ESE,10.4,-,N/A,,Clear,120,2013-07-15 20:53:00
4:53 PM,86.0,51.1,30,30.07,10.0,ESE,11.5,-,N/A,,Mostly Cloudy,120,2013-07-15 21:53:00
5:53 PM,87.1,48.0,26,30.05,10.0,SSE,12.7,18.4,N/A,,Partly Cloudy,160,2013-07-15 22:53:00
6:53 PM,86.0,50.0,29,30.05,10.0,ESE,11.5,-,N/A,,Partly Cloudy,120,2013-07-15 23:53:00
7:53 PM,82.9,52.0,34,30.05,10.0,SE,11.5,-,N/A,,Scattered Clouds,130,2013-07-16 00:53:00
8:53 PM,80.1,54.0,40,30.07,10.0,SE,17.3,26.5,N/A,,Clear,140,2013-07-16 01:53:00
9:53 PM,75.9,55.0,48,30.09,10.0,SE,12.7,-,N/A,,Clear,130,2013-07-16 02:53:00
10:53 PM,73.0,57.9,59,30.12,10.0,SE,12.7,20.7,N/A,,Clear,140,2013-07-16 03:53:00
11:53 PM,70.0,59.0,68,30.13,10.0,SE,8.1,-,N/A,,Clear,140,2013-07-16 04:53:00